Location: Rio Negrinho
(26.2394°S, 49.4999°W)
Time: 21:21:47
(UTC+00:00)

Centaur D-1AR AC-39 - Pass Details

Date: 07 June 2020
Orbit: 572 x 36209 km, 21.5° (Epoch: 10 July)

Event Time Altitude Azimuth Distance (km) Brightness Sun altitude
Rises 00:09:54 0° 281° (W) 3,659 6.2 -47.5°
Reaches altitude 10° 00:11:25 10° 283° (WNW) 3,095 5.6 -47.9°
Enters shadow 00:15:25 50° 299° (WNW) 2,267 4.4 -48.8°
Exits shadow 01:00:45 21° 84° (E) 15,595 8.2 -58.9°
Drops below altitude 10° 09:57:36 10° 40° (NE) 15,636 10.0 -1.5°
Sets 10:10:23 0° 47° (NE) 13,517 10.2 1.1°
